Location: Rancho Del Sol Observatory
(38.7214°N, 120.6350°W)
Time: 20:32:15
(UTC-08:00)

Transit 2A - Visible Passes

Search period start: 22 January 2020 00:00
Search period end: 01 February 2020 00:00
Orbit: 601 x 958 km, 66.7° (Epoch: 22 January)

Date Brightness Start Highest point End Pass type
(mag) Time Alt. Az. Time Alt. Az. Time Alt. Az.
22 Jan 6.6 05:16:47 23° N 05:19:37 50° ENE 05:24:44 10° SE visible
23 Jan 7.3 04:44:04 29° NNE 04:45:25 34° NE 04:50:09 10° ESE visible
23 Jan 6.9 06:24:36 12° NW 06:28:28 29° WSW 06:33:03 10° S visible
23 Jan 7.9 19:20:38 10° S 19:21:07 13° S 19:21:07 13° S visible
24 Jan 7.9 04:11:28 23° ENE 04:11:28 23° ENE 04:15:18 10° ESE visible
24 Jan 6.3 05:51:59 25° WNW 05:54:26 43° WSW 05:59:31 10° S visible
24 Jan 7.4 18:47:20 10° SSE 18:48:53 16° SE 18:48:53 16° SE visible
25 Jan 8.7 03:38:55 14° ENE 03:38:55 14° ENE 03:40:07 10° E visible
25 Jan 5.8 05:19:27 55° WNW 05:20:21 67° WSW 05:25:43 10° SSE visible
25 Jan 7.4 18:14:44 10° SE 18:16:37 13° ESE 18:16:37 13° ESE visible
25 Jan 7.4 19:54:58 10° SW 19:57:11 27° SW 19:57:11 27° SW visible
26 Jan 6.2 04:47:02 64° SE 04:47:02 64° SE 04:51:39 10° SSE visible
26 Jan 7.8 06:27:34 10° W 06:28:53 11° WSW 06:30:24 10° WSW visible
26 Jan 5.5 19:20:44 10° SSW 19:24:53 77° SW 19:24:53 77° SW visible
27 Jan 7.7 04:14:41 28° SE 04:14:41 28° SE 04:17:21 10° SE visible
27 Jan 7.5 05:55:13 18° WSW 05:55:13 18° WSW 05:58:26 10° SSW visible
27 Jan 5.5 18:46:44 10° SSW 18:51:05 58° ESE 18:52:32 37° NE visible
27 Jan 8.5 20:32:08 10° W 20:33:05 13° WNW 20:33:05 13° WNW visible
28 Jan 8.8 03:42:24 12° ESE 03:42:24 12° ESE 03:42:50 10° ESE visible
28 Jan 7.5 05:22:57 21° SW 05:22:57 21° SW 05:25:26 10° SSW visible
28 Jan 6.2 18:12:59 10° S 18:17:03 35° ESE 18:20:08 15° NE visible
28 Jan 7.7 19:56:53 10° WSW 20:00:15 21° NW 20:00:40 21° NW visible
29 Jan 8.0 04:50:45 16° S 04:50:45 16° S 04:51:59 10° S visible
29 Jan 7.2 19:22:03 10° WSW 19:25:58 31° NW 19:28:11 20° N visible
30 Jan 6.4 18:47:30 10° SW 18:51:46 48° WNW 18:55:37 12° NNE visible
31 Jan 5.6 18:13:12 10° SSW 18:17:38 78° WNW 18:21:58 10° NNE visible
